Location: Brede
(50.9167°N, 0.6000°E)
Time: 19:22:31
(UTC+00:00)

Cosmos 1674 - Pass Details

Date: 08 August 2020
Orbit: 495 x 517 km, 82.5° (Epoch: 24 September)

Event Time Altitude Azimuth Distance (km) Brightness Sun altitude
Rises 01:15:13 0° 352° (N) 2,597 7.3 -21.2°
Reaches altitude 10° 01:17:22 10° 356° (N) 1,710 6.3 -21.1°
Maximum altitude 01:21:04 61° 77° (ENE) 571 2.9 -20.9°
Enters shadow 01:21:44 51° 125° (SE) 638 3.0 -20.9°
